• In Hungary
  • List of Countries
  • For 7 days
  • Water Temperature
  • Satellite Maps
  • Weather Map
  • News
  • Weather Widgets
  • user-avatar
    Login

    Hourly Weather Mopti

    Today, 24 September, Monday

    Time Temperature Precipitation Wind Pressure Humidity
    00:00 +35°C° 0 mm 3 mps 735 mmHg 46%
    01:00 +35°C° 0 mm 3 mps 734 mmHg 48%
    02:00 +34°C° 0 mm 3 mps 734 mmHg 50%
    03:00 +33°C° 0 mm 3 mps 734 mmHg 52%
    04:00 +33°C° 0 mm 3 mps 734 mmHg 53%
    05:00 +33°C° 0 mm 3 mps 734 mmHg 55%
    06:00 +31°C° 0 mm 3 mps 734 mmHg 56%
    07:00 +33°C° 0.1 mm 3 mps 735 mmHg 53%
    08:00 +34°C° 0.1 mm 3 mps 735 mmHg 51%
    09:00 +35°C° 0.1 mm 3 mps 736 mmHg 48%
    10:00 +36°C° 0 mm 3 mps 736 mmHg 45%
    11:00 +37°C° 0 mm 2 mps 736 mmHg 42%
    12:00 +38°C° 0 mm 2 mps 736 mmHg 39%
    13:00 +37°C° 0 mm 1 mps 735 mmHg 37%
    14:00 +39°C° 0 mm 1 mps 734 mmHg 35%
    15:00 +36°C° 0 mm 0 mps 734 mmHg 34%
    16:00 +36°C° 0 mm 0 mps 734 mmHg 34%
    17:00 +39°C° 0 mm 1 mps 733 mmHg 34%
    18:00 +39°C° 0 mm 1 mps 733 mmHg 34%
    19:00 +39°C° 0.1 mm 2 mps 734 mmHg 35%
    20:00 +38°C° 0.1 mm 2 mps 734 mmHg 37%
    21:00 +37°C° 0.1 mm 3 mps 734 mmHg 39%
    22:00 +36°C° 0 mm 4 mps 734 mmHg 43%
    23:00 +35°C° 0 mm 5 mps 735 mmHg 48%

    Tomorrow, 25 September, Tuesday

    Time Temperature Precipitation Wind Pressure Humidity
    00:00 +34°C° 0 mm 6 mps 735 mmHg 52%
    01:00 +34°C° 0 mm 5 mps 734 mmHg 56%
    02:00 +33°C° 0 mm 5 mps 734 mmHg 59%
    03:00 +32°C° 0 mm 4 mps 734 mmHg 63%
    04:00 +32°C° 0.5 mm 5 mps 734 mmHg 64%
    05:00 +32°C° 0.5 mm 5 mps 735 mmHg 65%
    06:00 +30°C° 0.5 mm 6 mps 735 mmHg 66%
    07:00 +32°C° 0.1 mm 5 mps 735 mmHg 62%
    08:00 +33°C° 0.1 mm 4 mps 736 mmHg 58%
    09:00 +34°C° 0.1 mm 3 mps 736 mmHg 54%
    10:00 +36°C° 0 mm 4 mps 736 mmHg 48%
    11:00 +37°C° 0 mm 4 mps 735 mmHg 41%
    12:00 +40°C° 0 mm 4 mps 735 mmHg 35%
    13:00 +41°C° 0 mm 4 mps 734 mmHg 32%
    14:00 +42°C° 0 mm 4 mps 733 mmHg 29%
    15:00 +43°C° 0 mm 3 mps 733 mmHg 26%
    16:00 +42°C° 0 mm 3 mps 733 mmHg 27%
    17:00 +41°C° 0 mm 2 mps 733 mmHg 28%
    18:00 +40°C° 0 mm 2 mps 733 mmHg 28%
    19:00 +40°C° 0 mm 2 mps 733 mmHg 30%
    20:00 +39°C° 0 mm 2 mps 733 mmHg 31%
    21:00 +38°C° 0 mm 2 mps 734 mmHg 33%
    22:00 +37°C° 0 mm 3 mps 734 mmHg 37%
    23:00 +36°C° 0 mm 4 mps 734 mmHg 40%

    Day after tomorrow, 26 September, Wednesday

    Time Temperature Precipitation Wind Pressure Humidity
    00:00 +36°C° 0 mm 4 mps 734 mmHg 44%
    01:00 +35°C° 0 mm 4 mps 733 mmHg 46%
    02:00 +34°C° 0 mm 5 mps 733 mmHg 49%
    03:00 +34°C° 0 mm 5 mps 733 mmHg 51%
    04:00 +33°C° 0 mm 5 mps 733 mmHg 53%
    05:00 +33°C° 0 mm 4 mps 733 mmHg 55%
    06:00 +32°C° 0 mm 4 mps 733 mmHg 56%
    07:00 +33°C° 0 mm 4 mps 734 mmHg 55%
    08:00 +34°C° 0 mm 5 mps 734 mmHg 53%
    09:00 +34°C° 0 mm 5 mps 735 mmHg 52%
    10:00 +36°C° 0 mm 5 mps 735 mmHg 45%
    11:00 +38°C° 0 mm 4 mps 734 mmHg 38%
    12:00 +41°C° 0 mm 4 mps 734 mmHg 30%
    13:00 +42°C° 0 mm 3 mps 733 mmHg 27%
    14:00 +43°C° 0 mm 3 mps 732 mmHg 24%
    15:00 +43°C° 0 mm 2 mps 732 mmHg 21%
    16:00 +42°C° 0 mm 2 mps 732 mmHg 23%
    17:00 +41°C° 0 mm 2 mps 731 mmHg 24%
    18:00 +41°C° 0 mm 2 mps 731 mmHg 26%
    19:00 +40°C° 0 mm 2 mps 732 mmHg 28%
    20:00 +39°C° 0 mm 3 mps 732 mmHg 29%
    21:00 +39°C° 0 mm 3 mps 733 mmHg 30%
    22:00 +38°C° 0 mm 4 mps 733 mmHg 34%
    23:00 +37°C° 0 mm 4 mps 733 mmHg 37%

    27 September, Thursday

    Time Temperature Precipitation Wind Pressure Humidity
    00:00 +36°C° 0 mm 5 mps 733 mmHg 40%
    01:00 +36°C° 0 mm 5 mps 733 mmHg 42%
    02:00 +35°C° 0 mm 5 mps 732 mmHg 43%
    03:00 +35°C° 0 mm 4 mps 732 mmHg 44%
    04:00 +35°C° 0 mm 4 mps 732 mmHg 45%
    05:00 +34°C° 0 mm 4 mps 733 mmHg 47%
    06:00 +34°C° 0 mm 4 mps 733 mmHg 48%
    07:00 +34°C° 0 mm 5 mps 734 mmHg 47%
    08:00 +35°C° 0 mm 6 mps 734 mmHg 47%
    09:00 +36°C° 0 mm 6 mps 735 mmHg 46%
    10:00 +38°C° 0 mm 6 mps 735 mmHg 43%
    11:00 +39°C° 0 mm 6 mps 734 mmHg 40%
    12:00 +40°C° 0 mm 6 mps 734 mmHg 37%
    13:00 +40°C° 0 mm 6 mps 733 mmHg 36%
    14:00 +40°C° 0 mm 5 mps 733 mmHg 35%
    15:00 +40°C° 0 mm 4 mps 732 mmHg 33%
    16:00 +40°C° 0 mm 4 mps 732 mmHg 35%
    17:00 +38°C° 0 mm 4 mps 732 mmHg 36%
    18:00 +38°C° 0 mm 3 mps 732 mmHg 37%
    19:00 +37°C° 0 mm 4 mps 733 mmHg 39%
    20:00 +37°C° 0 mm 4 mps 733 mmHg 41%
    21:00 +36°C° 0 mm 4 mps 734 mmHg 43%
    22:00 +35°C° 0 mm 4 mps 734 mmHg 46%
    23:00 +35°C° 0 mm 4 mps 733 mmHg 48%

    28 September, Friday

    Time Temperature Precipitation Wind Pressure Humidity
    00:00 +34°C° 0 mm 4 mps 733 mmHg 51%
    01:00 +34°C° 0 mm 4 mps 733 mmHg 52%
    02:00 +33°C° 0 mm 4 mps 732 mmHg 54%
    03:00 +33°C° 0 mm 4 mps 732 mmHg 56%
    04:00 +33°C° 0 mm 4 mps 732 mmHg 57%
    05:00 +32°C° 0 mm 4 mps 733 mmHg 58%
    06:00 +32°C° 0 mm 4 mps 733 mmHg 60%
    07:00 +33°C° 0 mm 4 mps 734 mmHg 58%
    08:00 +34°C° 0 mm 5 mps 735 mmHg 56%
    09:00 +35°C° 0 mm 5 mps 736 mmHg 54%
    10:00 +36°C° 0 mm 5 mps 735 mmHg 49%
    11:00 +37°C° 0 mm 4 mps 735 mmHg 44%
    12:00 +38°C° 0 mm 4 mps 735 mmHg 39%
    13:00 +40°C° 0 mm 4 mps 734 mmHg 36%
    14:00 +40°C° 0 mm 4 mps 733 mmHg 33%
    15:00 +41°C° 0 mm 4 mps 733 mmHg 30%
    16:00 +39°C° 0 mm 3 mps 733 mmHg 31%
    17:00 +39°C° 0 mm 3 mps 733 mmHg 32%
    18:00 +38°C° 0 mm 3 mps 733 mmHg 33%
    19:00 +37°C° 0.5 mm 2 mps 733 mmHg 35%
    20:00 +36°C° 0.5 mm 2 mps 734 mmHg 38%
    21:00 +35°C° 0.5 mm 2 mps 734 mmHg 40%
    22:00 +35°C° 0 mm 2 mps 734 mmHg 41%
    23:00 +35°C° 0 mm 2 mps 734 mmHg 42%

    29 September, Saturday

    Time Temperature Precipitation Wind Pressure Humidity
    00:00 +34°C° 0 mm 2 mps 733 mmHg 43%
    01:00 +34°C° 0 mm 2 mps 733 mmHg 45%
    02:00 +32°C° 0 mm 2 mps 733 mmHg 47%
    03:00 +32°C° 0 mm 2 mps 733 mmHg 49%
    04:00 +32°C° 0.1 mm 2 mps 733 mmHg 51%
    05:00 +31°C° 0.1 mm 2 mps 734 mmHg 53%
    06:00 +31°C° 0.1 mm 2 mps 734 mmHg 55%
    07:00 +33°C° 0 mm 3 mps 734 mmHg 52%
    08:00 +34°C° 0 mm 3 mps 735 mmHg 50%
    09:00 +35°C° 0 mm 4 mps 735 mmHg 48%
    10:00 +36°C° 0 mm 3 mps 735 mmHg 43%
    11:00 +37°C° 0 mm 2 mps 735 mmHg 39%
    12:00 +37°C° 0 mm 1 mps 734 mmHg 35%
    13:00 +39°C° 0 mm 1 mps 734 mmHg 33%
    14:00 +39°C° 0 mm 1 mps 733 mmHg 31%
    15:00 +40°C° 0 mm 1 mps 732 mmHg 29%
    16:00 +39°C° 0.1 mm 1 mps 732 mmHg 30%
    17:00 +39°C° 0.1 mm 1 mps 733 mmHg 32%
    18:00 +38°C° 0.1 mm 2 mps 733 mmHg 34%
    19:00 +37°C° 0 mm 1 mps 733 mmHg 36%
    20:00 +36°C° 0 mm 1 mps 733 mmHg 37%
    21:00 +36°C° 0 mm 1 mps 733 mmHg 39%
    22:00 +35°C° 0 mm 1 mps 733 mmHg 40%
    23:00 +35°C° 0 mm 1 mps 733 mmHg 41%
    Show more